Regional Weather Roundup
Issued by NWS

Home | Current Version | Previous Version | Text Only | Print | Product List | Glossary Off
Versions: 1 2 3 4 5 6 7 8 9 10 11 12 13 14 15 16 17 18 19 20 21 22 23 24 25 26 27 28 29 30 31 32 33 34 35 36 37 38 39 40 41 42 43 44 45 46 47 48 49 50

000
ASUS45 KCYS 021410
RWRWY

WYOMING REGIONAL WEATHER ROUNDUP
NATIONAL WEATHER SERVICE CHEYENNE WY
800 AM MDT MON MAY 02 2016

NOTE:  "FAIR" INDICATES FEW OR NO CLOUDS BELOW 12,000 FEET
WITH NO SIGNIFICANT WEATHER AND/OR OBSTRUCTIONS TO VISIBILITY.

WYZ001-021500-
YELLOWSTONE NATIONAL PARK

CITY           SKY/WX    TMP DP  RH WIND       PRES   REMARKS
LK YELLOWSTONE   N/A     28  19  69 CALM      30.32R
W YELLOWSTONE  NOT AVBL

$$
WYZ002>013-054>058-071-098>099-021500-
NORTHERN WYOMING

CITY           SKY/WX    TMP DP  RH WIND       PRES   REMARKS
JACKSON        SUNNY     32  25  74 N6        30.31R WCI  26
CODY           FAIR      45  27  49 SW9       30.22S
GREYBULL       FAIR      42  30  62 CALM      30.24R
WORLAND        FAIR      42  33  70 CALM      30.24R
SHERIDAN       FAIR      46  34  62 CALM      30.18F
BUFFALO          N/A    N/A N/A N/A MISG      30.19F
GILLETTE       FAIR      46  33  60 W14       30.16F
HULETT         FAIR      45  32  61 SW9       30.17F
NEWCASTLE      FAIR      36  30  80 CALM      30.20S

$$
WYZ014>020-022>026-101>103-021500-
CENTRAL WYOMING

CITY           SKY/WX    TMP DP  RH WIND       PRES   REMARKS
BIG PINEY      FAIR      26  18  71 E3        30.31R
PINEDALE       FAIR      27  21  80 CALM      30.31S
DUBOIS         NOT AVBL
LANDER         FAIR      39  20  46 SW6       30.25S WCI  35
RIVERTON       FAIR      37  25  61 W7        30.27S WCI  32
CASPER         FAIR      36  27  69 SW13      30.25R WCI  27
DOUGLAS        FAIR      35  30  82 NW6       30.24S WCI  30

$$
WYZ021-027>030-104>119-021500-
SOUTHERN WYOMING

CITY           SKY/WX    TMP DP  RH WIND       PRES   REMARKS
EVANSTON       FAIR      34  22  61 E7        30.29R WCI  28
KEMMERER       FAIR      30  25  80 N7        30.31R WCI  23
FORT BRIDGER   SUNNY     32  28  86 CALM      30.33R
ROCK SPRINGS   FAIR      33  23  66 N3        30.30R
DIXON          FAIR      30  22  72 CALM      30.32R
RAWLINS        FAIR      28  22  78 CALM      30.28R
SARATOGA       FAIR      28  18  64 W3        30.28S
LARAMIE        FAIR      19  14  81 W5        30.26R WCI  12
CHEYENNE       FAIR      34  24  67 W7        30.24S WCI  28
TORRINGTON     FAIR      36  30  79 W7        30.21F WCI  30
PINE BLUFFS    FAIR      32  30  93 W6        30.24S WCI  26

$$



USA.gov is the U.S. government's official web portal to all federal, state and local government web resources and services.